Flag for Austria Weather past 2 weeks in Vöcklabruck, Upper Austria, Austria

Now
73 °F

Mild.


Feels Like: 77 °F
Forecast: 47 / 67 °F
Wind: 1 mph from Northeast

Location: Kremsmuenster

Current Time: Aug 22, 2014 at 4:48:21 PM

Latest Report: Aug 22, 2014 at 4:00 PM


Visibility: N/A

Pressure: 29.92 "Hg

Humidity: 54%

Dew point: 55 °F

Location of VöcklabruckLocation

Historic Weather in Vöcklabruck — Graph

°F

Vöcklabruck temperature yesterday

Maximum temperature yesterday: 67 °F (at 5:00 PM)
Minimum temperature yesterday: 52 °F (at 6:00 AM)
Average temperature yesterday: 59 °F

Past Weeks' High & Low Weather Summary

 TemperatureHumidityPressure
High84 °F (Aug 10, 5:00 PM)99% (Aug 10, 7:00 AM)30.15 "Hg (Aug 10, 7:00 AM)
Low52 °F (Aug 21, 6:00 AM)39% (Aug 17, 5:00 PM)29.67 "Hg (Aug 13, 7:00 PM)
Average63 °F76%29.96 "Hg
* Reported Aug 7 3:00 PM — Aug 22 3:00 PM, Vöcklabruck, Weather by CustomWeather, © 2014

Note: Actual official high and low records may vary slightly from our data, if they occured in-between our weather recording intervals... More about our weather records

Advertising

Vöcklabruck weather history for previous 24 hours

 ConditionsComfort  
Time TempWeatherWind HumidityBarometerVisibility
3:00 PM
Aug 22
71 °FMild.2 mph56%29.94 "HgN/A
2:00 PM71 °FMild.1 mph62%29.95 "HgN/A
1:00 PM67 °FMild.2 mph66%29.98 "HgN/A
12:00 PM66 °FMild.2 mph71%29.98 "HgN/A
11:00 AM60 °FLow clouds.2 mph80%30.01 "Hg9 mi
10:00 AM59 °FCool.3 mph83%30.01 "HgN/A
9:00 AM58 °FCool.3 mph87%30.02 "HgN/A
8:00 AM55 °FFog.1 mph92%30.03 "Hg37 mi
7:00 AM55 °FPartly sunny.1 mph91%30.03 "Hg34 mi
6:00 AM56 °FCool.2 mph85%30.02 "HgN/A
5:00 AM56 °FCool.3 mph89%30.03 "HgN/A
4:00 AM57 °FCool.3 mph87%30.02 "HgN/A
3:00 AM57 °FCool.1 mph87%30.03 "HgN/A
2:00 AM57 °FCool.2 mph88%30.03 "HgN/A
1:00 AM58 °FCool.No wind84%30.03 "HgN/A
12:00 AM59 °FCool.1 mph82%30.03 "HgN/A
11:00 PM
Aug 21
59 °FCool.3 mph77%30.04 "HgN/A
10:00 PM60 °FCool.2 mph76%30.04 "HgN/A
9:00 PM60 °FCool.1 mph74%30.04 "HgN/A
8:00 PM60 °FPartly sunny.1 mph72%30.02 "Hg12 mi
7:00 PM64 °FMild.No wind61%30.01 "HgN/A
6:00 PM65 °FMild.1 mph58%30.01 "HgN/A
5:00 PM67 °FOvercast.1 mph56%30.01 "Hg14 mi
4:00 PM66 °FMild.2 mph52%30.03 "HgN/A
Weather by CustomWeather, © 2014

See weather overviewHow to use our weather pages